ANA811 RJAA-VHHH

Flight info

Callsign ANA811
Flight time N/A
Altitude 36000
Route PIGOK Y50 IGMON A1 ELATO V522 ABBEY
Aircraft B77W/H-SDE1E2E3FGHIJ2J3J4J5M1RWXY/LB1D1

Departure

Time N/A
Airport Narita International Airport (RJAA)

Arrival

Time 2026-05-05 06:41
Airport Hong Kong International Airport (VHHH)
Time Latitude Longitude Altitude Speed Heading
2026-05-05 04:04 30.59993 128.93552 36140 ft 388 kts 235°
2026-05-05 04:05 30.56708 128.88577 36135 ft 387 kts 235°
2026-05-05 04:05 30.53415 128.83597 36131 ft 388 kts 235°
2026-05-05 04:06 30.50143 128.78653 36129 ft 388 kts 235°
2026-05-05 04:06 30.46841 128.73673 36121 ft 388 kts 235°
2026-05-05 04:07 30.43579 128.68756 36120 ft 388 kts 235°
2026-05-05 04:07 30.40258 128.63759 36118 ft 390 kts 235°
2026-05-05 04:08 30.36977 128.58827 36116 ft 388 kts 235°
2026-05-05 04:08 30.33659 128.53845 36116 ft 391 kts 236°
2026-05-05 04:09 30.30368 128.48912 36112 ft 388 kts 235°
2026-05-05 04:09 30.27050 128.43942 36116 ft 391 kts 235°
2026-05-05 04:10 30.23735 128.38986 36113 ft 389 kts 235°
2026-05-05 04:10 30.20427 128.34042 36122 ft 389 kts 234°
2026-05-05 04:11 30.17110 128.29094 36133 ft 389 kts 235°
2026-05-05 04:11 30.13778 128.24129 36133 ft 391 kts 234°
2026-05-05 04:12 30.10447 128.19171 36134 ft 391 kts 234°
2026-05-05 04:12 30.07118 128.14223 36128 ft 391 kts 234°
2026-05-05 04:13 30.03771 128.09255 36128 ft 392 kts 235°
2026-05-05 04:13 30.00446 128.04323 36128 ft 393 kts 234°
2026-05-05 04:14 29.97092 127.99357 36126 ft 393 kts 235°
2026-05-05 04:14 29.93712 127.94357 36122 ft 393 kts 234°
2026-05-05 04:15 29.90381 127.89437 36121 ft 393 kts 235°
2026-05-05 04:15 29.86995 127.84439 36126 ft 394 kts 234°
2026-05-05 04:16 29.83504 127.79609 36123 ft 393 kts 232°
2026-05-05 04:16 29.79946 127.74865 36126 ft 393 kts 232°
2026-05-05 04:17 29.76369 127.70084 36122 ft 392 kts 232°
2026-05-05 04:17 29.72816 127.65327 36116 ft 395 kts 232°
2026-05-05 04:18 29.69257 127.60567 36123 ft 393 kts 232°
2026-05-05 04:18 29.65680 127.55786 36114 ft 393 kts 233°
2026-05-05 04:19 29.62111 127.51019 36113 ft 394 kts 233°
2026-05-05 04:19 29.58555 127.46275 36113 ft 392 kts 232°
2026-05-05 04:20 29.55168 127.41408 36111 ft 392 kts 235°
2026-05-05 04:20 29.51778 127.36466 36109 ft 392 kts 234°
2026-05-05 04:21 29.48400 127.31566 36124 ft 392 kts 234°
2026-05-05 04:21 29.45024 127.26682 36121 ft 392 kts 234°
2026-05-05 04:22 29.41614 127.21758 36120 ft 394 kts 234°
2026-05-05 04:22 29.38231 127.16882 36120 ft 393 kts 234°
2026-05-05 04:23 29.34820 127.11972 36119 ft 393 kts 234°
2026-05-05 04:23 29.31427 127.07093 36114 ft 393 kts 234°
2026-05-05 04:24 29.28009 127.02185 36111 ft 392 kts 234°
2026-05-05 04:25 29.22899 126.94856 36111 ft 394 kts 234°
2026-05-05 04:25 29.19477 126.89957 36109 ft 395 kts 235°
2026-05-05 04:26 29.16049 126.85055 36108 ft 394 kts 234°
2026-05-05 04:26 29.12613 126.80148 36107 ft 396 kts 234°
2026-05-05 04:27 29.09181 126.75252 36106 ft 393 kts 234°
2026-05-05 04:27 29.05756 126.70371 36100 ft 396 kts 234°
2026-05-05 04:28 29.02310 126.65467 36100 ft 393 kts 234°
2026-05-05 04:28 28.98881 126.60592 36096 ft 396 kts 234°
2026-05-05 04:29 28.95418 126.55740 36097 ft 395 kts 233°
2026-05-05 04:29 28.91830 126.50912 36094 ft 398 kts 233°
2026-05-05 04:30 28.88264 126.46114 36102 ft 397 kts 233°
2026-05-05 04:30 28.84681 126.41291 36103 ft 398 kts 233°
2026-05-05 04:31 28.81114 126.36494 36101 ft 396 kts 233°
2026-05-05 04:31 28.77544 126.31695 36118 ft 399 kts 232°
2026-05-05 04:32 28.73958 126.26881 36121 ft 398 kts 233°
2026-05-05 04:32 28.70384 126.22087 36115 ft 396 kts 232°
2026-05-05 04:33 28.66810 126.17300 36117 ft 399 kts 233°
2026-05-05 04:33 28.63219 126.12490 36115 ft 398 kts 233°
2026-05-05 04:34 28.59748 126.07589 36112 ft 397 kts 234°
2026-05-05 04:34 28.56301 126.02706 36111 ft 397 kts 234°
2026-05-05 04:35 28.52829 125.97805 36113 ft 398 kts 234°
2026-05-05 04:35 28.49354 125.92910 36109 ft 398 kts 234°
2026-05-05 04:36 28.45880 125.88024 36109 ft 396 kts 234°
2026-05-05 04:36 28.42403 125.83139 36106 ft 399 kts 234°
2026-05-05 04:37 28.38901 125.78227 36105 ft 397 kts 234°
2026-05-05 04:37 28.35441 125.73378 36104 ft 398 kts 234°
2026-05-05 04:38 28.31935 125.68471 36101 ft 398 kts 234°
2026-05-05 04:38 28.28449 125.63599 36101 ft 399 kts 234°
2026-05-05 04:39 28.24959 125.58726 36099 ft 398 kts 234°
2026-05-05 04:39 28.21464 125.53851 36096 ft 400 kts 234°
2026-05-05 04:40 28.17953 125.48961 36099 ft 399 kts 234°
2026-05-05 04:40 28.14463 125.44104 36094 ft 398 kts 234°
2026-05-05 04:41 28.10946 125.39216 36092 ft 400 kts 234°
2026-05-05 04:41 28.07464 125.34383 36096 ft 397 kts 234°
2026-05-05 04:42 28.03937 125.29491 36115 ft 400 kts 234°
2026-05-05 04:42 28.00422 125.24623 36108 ft 399 kts 234°
2026-05-05 04:43 27.96904 125.19755 36109 ft 401 kts 234°
2026-05-05 04:43 27.93379 125.14883 36107 ft 400 kts 234°
2026-05-05 04:44 27.89845 125.10005 36104 ft 402 kts 234°
2026-05-05 04:44 27.86313 125.05135 36111 ft 403 kts 234°
2026-05-05 04:45 27.82753 125.00232 36106 ft 401 kts 233°
2026-05-05 04:45 27.79201 124.95345 36108 ft 404 kts 233°
2026-05-05 04:46 27.75649 124.90466 36106 ft 402 kts 234°
2026-05-05 04:46 27.72084 124.85572 36101 ft 403 kts 234°
2026-05-05 04:47 27.68519 124.80684 36092 ft 404 kts 234°
2026-05-05 04:47 27.64963 124.75814 36096 ft 402 kts 234°
2026-05-05 04:48 27.61403 124.70944 36098 ft 404 kts 234°
2026-05-05 04:48 27.57818 124.66038 36091 ft 403 kts 234°
2026-05-05 04:49 27.54253 124.61163 36084 ft 404 kts 234°
2026-05-05 04:49 27.50673 124.56276 36083 ft 405 kts 234°
2026-05-05 04:50 27.47106 124.51411 36087 ft 402 kts 234°
2026-05-05 04:50 27.43529 124.46537 36080 ft 404 kts 234°
2026-05-05 04:51 27.39940 124.41654 36076 ft 405 kts 234°
2026-05-05 04:51 27.36369 124.36800 36075 ft 403 kts 234°
2026-05-05 04:52 27.32763 124.31903 36096 ft 407 kts 234°
2026-05-05 04:52 27.29168 124.27028 36087 ft 404 kts 233°
2026-05-05 04:53 27.25563 124.22144 36091 ft 407 kts 233°
2026-05-05 04:53 27.21958 124.17267 36083 ft 405 kts 234°
2026-05-05 04:54 27.18353 124.12392 36081 ft 406 kts 233°
2026-05-05 04:54 27.14735 124.07507 36074 ft 405 kts 233°
2026-05-05 04:55 27.11120 124.02631 36066 ft 407 kts 233°
2026-05-05 04:55 27.07494 123.97765 36070 ft 404 kts 233°
2026-05-05 04:56 27.03862 123.92940 36064 ft 407 kts 233°
2026-05-05 04:56 27.00220 123.88106 36062 ft 407 kts 233°
2026-05-05 04:57 26.96544 123.83231 36062 ft 406 kts 233°
2026-05-05 04:57 26.92886 123.78383 36060 ft 408 kts 233°
2026-05-05 04:58 26.89242 123.73560 36063 ft 406 kts 233°
2026-05-05 04:58 26.85581 123.68720 36062 ft 406 kts 233°
2026-05-05 04:59 26.81913 123.63875 36059 ft 408 kts 233°
2026-05-05 04:59 26.78259 123.59055 36054 ft 407 kts 233°
2026-05-05 05:00 26.74593 123.54222 36058 ft 408 kts 233°
2026-05-05 05:00 26.70919 123.49387 36049 ft 409 kts 233°
2026-05-05 05:01 26.67221 123.44522 36045 ft 410 kts 233°
2026-05-05 05:01 26.63516 123.39658 36042 ft 409 kts 233°
2026-05-05 05:02 26.59838 123.34833 36041 ft 410 kts 233°
2026-05-05 05:02 26.56116 123.29954 36063 ft 410 kts 233°
2026-05-05 05:03 26.52438 123.25141 36060 ft 411 kts 233°
2026-05-05 05:03 26.48726 123.20287 36058 ft 409 kts 233°
2026-05-05 05:04 26.45024 123.15452 36053 ft 410 kts 233°
2026-05-05 05:04 26.41311 123.10608 36049 ft 412 kts 233°
2026-05-05 05:05 26.37581 123.05746 36047 ft 411 kts 233°
2026-05-05 05:05 26.33863 123.00906 36043 ft 410 kts 233°
2026-05-05 05:06 26.30162 122.96094 36037 ft 412 kts 233°
2026-05-05 05:06 26.26431 122.91251 36039 ft 412 kts 233°
2026-05-05 05:07 26.22694 122.86404 36037 ft 412 kts 233°
2026-05-05 05:07 26.18967 122.81575 36034 ft 411 kts 233°
2026-05-05 05:08 26.15243 122.76754 36033 ft 412 kts 233°
2026-05-05 05:08 26.11505 122.71921 36030 ft 414 kts 233°
2026-05-05 05:09 26.07761 122.67086 36028 ft 412 kts 233°
2026-05-05 05:09 26.04013 122.62250 36027 ft 415 kts 233°
2026-05-05 05:10 26.00233 122.57377 36027 ft 419 kts 233°
2026-05-05 05:10 25.98335 122.54935 36177 ft 414 kts 233°
2026-05-05 05:10 25.96451 122.52511 36340 ft 412 kts 233°
2026-05-05 05:10 25.94571 122.50092 36505 ft 416 kts 233°
2026-05-05 05:11 25.92680 122.47659 36673 ft 416 kts 233°
2026-05-05 05:11 25.90809 122.45254 36834 ft 415 kts 233°
2026-05-05 05:11 25.88903 122.42805 37002 ft 414 kts 233°
2026-05-05 05:11 25.87021 122.40388 37176 ft 415 kts 233°
2026-05-05 05:12 25.85150 122.37985 37347 ft 416 kts 233°
2026-05-05 05:12 25.83251 122.35548 37517 ft 415 kts 233°
2026-05-05 05:12 25.81374 122.33143 37710 ft 416 kts 233°
2026-05-05 05:12 25.79469 122.30700 37873 ft 417 kts 233°
2026-05-05 05:13 25.77565 122.28261 38019 ft 418 kts 233°
2026-05-05 05:13 25.73767 122.23400 38045 ft 417 kts 233°
2026-05-05 05:14 25.69970 122.18545 38030 ft 419 kts 233°
2026-05-05 05:14 25.66143 122.13658 38042 ft 417 kts 233°
2026-05-05 05:15 25.62346 122.08814 38035 ft 418 kts 233°
2026-05-05 05:15 25.58558 122.03971 38026 ft 417 kts 233°
2026-05-05 05:16 25.54749 121.99110 38021 ft 416 kts 233°
2026-05-05 05:16 25.50950 121.94282 38015 ft 419 kts 233°
2026-05-05 05:17 25.47107 121.89404 38008 ft 418 kts 233°
2026-05-05 05:17 25.43294 121.84569 38015 ft 418 kts 233°
2026-05-05 05:18 25.39467 121.79722 38002 ft 419 kts 233°
2026-05-05 05:18 25.35652 121.74894 38008 ft 418 kts 233°
2026-05-05 05:19 25.31827 121.70058 38006 ft 420 kts 233°
2026-05-05 05:19 25.27962 121.65177 37996 ft 420 kts 233°
2026-05-05 05:20 25.24122 121.60332 38004 ft 422 kts 233°
2026-05-05 05:20 25.20259 121.55464 37997 ft 423 kts 233°
2026-05-05 05:21 25.16392 121.50574 37996 ft 421 kts 234°
2026-05-05 05:21 25.12606 121.45648 37997 ft 422 kts 234°
2026-05-05 05:22 25.08790 121.40691 37987 ft 423 kts 234°
2026-05-05 05:22 25.04987 121.35762 37984 ft 423 kts 234°
2026-05-05 05:23 25.01161 121.30811 38012 ft 424 kts 233°
2026-05-05 05:23 24.97342 121.25875 38004 ft 424 kts 233°
2026-05-05 05:24 24.93516 121.20933 38009 ft 426 kts 233°
2026-05-05 05:24 24.89689 121.15998 38010 ft 424 kts 233°
2026-05-05 05:25 24.85849 121.11052 38014 ft 426 kts 233°
2026-05-05 05:25 24.82005 121.06104 38013 ft 427 kts 233°
2026-05-05 05:26 24.78128 121.01115 38009 ft 427 kts 233°
2026-05-05 05:26 24.74293 120.96186 38003 ft 426 kts 234°
2026-05-05 05:27 24.70415 120.91205 38018 ft 429 kts 234°
2026-05-05 05:27 24.64625 120.83781 38022 ft 426 kts 233°
2026-05-05 05:28 24.60742 120.78808 38019 ft 428 kts 233°
2026-05-05 05:28 24.56874 120.73859 38011 ft 430 kts 233°
2026-05-05 05:29 24.52835 120.69019 38011 ft 429 kts 230°
2026-05-05 05:29 24.48650 120.64291 38012 ft 431 kts 230°
2026-05-05 05:30 24.44498 120.59580 38006 ft 432 kts 231°
2026-05-05 05:30 24.40329 120.54844 38005 ft 433 kts 231°
2026-05-05 05:31 24.36136 120.50078 37998 ft 434 kts 231°
2026-05-05 05:31 24.31955 120.45327 37998 ft 433 kts 231°
2026-05-05 05:32 24.27789 120.40596 37993 ft 433 kts 231°
2026-05-05 05:32 24.23971 120.35517 37990 ft 429 kts 238°
2026-05-05 05:33 24.20535 120.30230 37998 ft 429 kts 238°
2026-05-05 05:33 24.17072 120.24902 37993 ft 429 kts 238°
2026-05-05 05:34 24.13617 120.19593 37983 ft 431 kts 238°
2026-05-05 05:34 24.10144 120.14262 37987 ft 430 kts 238°
2026-05-05 05:35 24.06669 120.08933 37968 ft 431 kts 238°
2026-05-05 05:35 24.03201 120.03622 37977 ft 429 kts 238°
2026-05-05 05:36 23.99715 119.98287 37969 ft 432 kts 238°
2026-05-05 05:36 23.96212 119.92934 37964 ft 433 kts 238°
2026-05-05 05:37 23.92719 119.87600 37964 ft 432 kts 238°
2026-05-05 05:37 23.89232 119.82282 37970 ft 433 kts 238°
2026-05-05 05:38 23.85728 119.76942 37972 ft 434 kts 238°
2026-05-05 05:38 23.82208 119.71585 37974 ft 434 kts 238°
2026-05-05 05:39 23.78703 119.66258 37980 ft 435 kts 238°
2026-05-05 05:39 23.75174 119.60898 37979 ft 434 kts 238°
2026-05-05 05:40 23.71666 119.55576 37973 ft 433 kts 238°
2026-05-05 05:40 23.68138 119.50229 37981 ft 434 kts 238°
2026-05-05 05:41 23.64619 119.44902 37980 ft 435 kts 238°
2026-05-05 05:41 23.61085 119.39557 37983 ft 435 kts 238°
2026-05-05 05:42 23.57549 119.34215 37990 ft 436 kts 238°
2026-05-05 05:42 23.53982 119.28831 37995 ft 437 kts 238°
2026-05-05 05:43 23.50422 119.23465 37995 ft 437 kts 238°
2026-05-05 05:43 23.46865 119.18108 37993 ft 439 kts 237°
2026-05-05 05:44 23.43286 119.12725 37997 ft 439 kts 237°
2026-05-05 05:44 23.39709 119.07349 37996 ft 439 kts 238°
2026-05-05 05:45 23.36117 119.01957 37994 ft 441 kts 238°
2026-05-05 05:45 23.32538 118.96590 37992 ft 439 kts 238°
2026-05-05 05:46 23.28931 118.91187 37993 ft 441 kts 238°
2026-05-05 05:46 23.25324 118.85789 37991 ft 441 kts 238°
2026-05-05 05:47 23.21712 118.80391 37986 ft 441 kts 238°
2026-05-05 05:47 23.18105 118.75004 37985 ft 441 kts 238°
2026-05-05 05:48 23.14506 118.69635 37971 ft 443 kts 238°
2026-05-05 05:48 23.10870 118.64217 37969 ft 443 kts 238°
2026-05-05 05:49 23.07244 118.58820 37976 ft 443 kts 238°
2026-05-05 05:49 23.03592 118.53390 37971 ft 445 kts 238°
2026-05-05 05:50 22.99970 118.48010 37974 ft 443 kts 238°
2026-05-05 05:50 22.96318 118.42590 37970 ft 446 kts 238°
2026-05-05 05:51 22.92656 118.37162 37968 ft 443 kts 238°
2026-05-05 05:51 22.89004 118.31754 37981 ft 445 kts 237°
2026-05-05 05:52 22.85380 118.26393 37986 ft 444 kts 237°
2026-05-05 05:52 22.81724 118.20991 37986 ft 444 kts 237°
2026-05-05 05:53 22.78072 118.15600 37982 ft 444 kts 237°
2026-05-05 05:53 22.74423 118.10218 37988 ft 443 kts 237°
2026-05-05 05:54 22.70764 118.04827 37977 ft 445 kts 237°
2026-05-05 05:54 22.67107 117.99446 37984 ft 443 kts 237°
2026-05-05 05:55 22.63443 117.94060 37983 ft 444 kts 237°
2026-05-05 05:55 22.59776 117.88674 37979 ft 444 kts 237°
2026-05-05 05:56 22.56120 117.83309 37977 ft 445 kts 237°
2026-05-05 05:56 22.52430 117.77902 37975 ft 445 kts 237°
2026-05-05 05:57 22.48764 117.72533 37978 ft 445 kts 237°
2026-05-05 05:57 22.45095 117.67168 37975 ft 445 kts 237°
2026-05-05 05:58 22.41410 117.61782 37971 ft 445 kts 237°
2026-05-05 05:58 22.37749 117.56438 37975 ft 445 kts 237°
2026-05-05 05:59 22.34582 117.50795 37971 ft 439 kts 251°
2026-05-05 05:59 22.33178 117.44404 37969 ft 436 kts 267°
2026-05-05 06:00 22.33056 117.37893 37963 ft 436 kts 270°
2026-05-05 06:00 22.32971 117.31365 37980 ft 436 kts 269°
2026-05-05 06:01 22.32867 117.24844 37978 ft 435 kts 269°
2026-05-05 06:01 22.32753 117.18314 37974 ft 436 kts 269°
2026-05-05 06:02 22.32631 117.11763 37978 ft 435 kts 269°
2026-05-05 06:02 22.32506 117.05270 37981 ft 435 kts 269°
2026-05-05 06:03 22.32377 116.98778 37990 ft 434 kts 269°
2026-05-05 06:03 22.32244 116.92278 37991 ft 434 kts 269°
2026-05-05 06:04 22.32110 116.85785 37988 ft 433 kts 269°
2026-05-05 06:04 22.31971 116.79282 37995 ft 433 kts 269°
2026-05-05 06:05 22.31832 116.72818 37989 ft 433 kts 269°
2026-05-05 06:05 22.31689 116.66311 37990 ft 433 kts 269°
2026-05-05 06:06 22.31543 116.59827 37987 ft 433 kts 269°
2026-05-05 06:06 22.31395 116.53342 37978 ft 433 kts 269°
2026-05-05 06:07 22.31244 116.46802 37968 ft 436 kts 269°
2026-05-05 06:07 22.31090 116.40293 37968 ft 435 kts 269°
2026-05-05 06:08 22.30934 116.33793 37971 ft 436 kts 269°
2026-05-05 06:08 22.30774 116.27251 37974 ft 435 kts 269°
2026-05-05 06:09 22.30614 116.20778 37976 ft 434 kts 269°
2026-05-05 06:09 22.30449 116.14267 37968 ft 433 kts 269°
2026-05-05 06:10 22.30367 116.11037 37544 ft 428 kts 269°
2026-05-05 06:10 22.30285 116.07862 36683 ft 431 kts 269°
2026-05-05 06:10 22.30202 116.04632 35789 ft 434 kts 269°
2026-05-05 06:10 22.30117 116.01390 34936 ft 435 kts 268°
2026-05-05 06:11 22.30030 115.98090 34094 ft 436 kts 268°
2026-05-05 06:11 22.29945 115.94862 33275 ft 436 kts 268°
2026-05-05 06:11 22.29856 115.91559 32410 ft 438 kts 268°
2026-05-05 06:11 22.29769 115.88321 31553 ft 439 kts 268°
2026-05-05 06:12 22.29679 115.85003 30671 ft 441 kts 268°
2026-05-05 06:12 22.29590 115.81735 30146 ft 434 kts 268°
2026-05-05 06:12 22.29506 115.78516 29665 ft 427 kts 268°
2026-05-05 06:12 22.29421 115.75311 29127 ft 422 kts 268°
2026-05-05 06:13 22.29339 115.72185 28580 ft 418 kts 268°
2026-05-05 06:13 22.29256 115.69093 28039 ft 420 kts 268°
2026-05-05 06:13 22.29169 115.65866 27461 ft 429 kts 268°
2026-05-05 06:13 22.29083 115.62674 26873 ft 428 kts 268°
2026-05-05 06:14 22.28996 115.59504 26299 ft 424 kts 268°
2026-05-05 06:14 22.28909 115.56323 25711 ft 419 kts 268°
2026-05-05 06:14 22.28823 115.53226 25134 ft 415 kts 268°
2026-05-05 06:14 22.28737 115.50154 24562 ft 411 kts 268°
2026-05-05 06:15 22.28651 115.47065 23968 ft 407 kts 268°
2026-05-05 06:15 22.28566 115.44070 23402 ft 403 kts 269°
2026-05-05 06:15 22.28480 115.41035 22828 ft 400 kts 269°
2026-05-05 06:15 22.28395 115.38091 22257 ft 396 kts 269°
2026-05-05 06:16 22.28310 115.35121 21695 ft 393 kts 269°
2026-05-05 06:16 22.28225 115.32210 21143 ft 391 kts 268°
2026-05-05 06:16 22.28136 115.29260 20559 ft 389 kts 268°
2026-05-05 06:16 22.28047 115.26352 19974 ft 388 kts 268°
2026-05-05 06:17 22.27958 115.23459 19384 ft 386 kts 268°
2026-05-05 06:17 22.27869 115.20567 18796 ft 384 kts 268°
2026-05-05 06:17 22.27766 115.17696 18225 ft 382 kts 265°
2026-05-05 06:17 22.27349 115.14944 18096 ft 367 kts 256°
2026-05-05 06:18 22.26538 115.12338 18097 ft 375 kts 249°
2026-05-05 06:18 22.25477 115.09690 18101 ft 384 kts 248°
2026-05-05 06:18 22.24401 115.07054 18099 ft 384 kts 248°
2026-05-05 06:18 22.23325 115.04426 17932 ft 388 kts 248°
2026-05-05 06:19 22.22235 115.01762 17452 ft 388 kts 248°
2026-05-05 06:19 22.21143 114.99094 16875 ft 386 kts 248°
2026-05-05 06:19 22.20066 114.96467 16284 ft 383 kts 248°
2026-05-05 06:19 22.18984 114.93826 15683 ft 381 kts 247°
2026-05-05 06:20 22.17924 114.91243 15081 ft 379 kts 248°
2026-05-05 06:20 22.16867 114.88667 14485 ft 376 kts 247°
2026-05-05 06:20 22.15818 114.86113 13895 ft 374 kts 247°
2026-05-05 06:20 22.14763 114.83546 13299 ft 372 kts 247°
2026-05-05 06:21 22.13720 114.81009 12713 ft 369 kts 247°
2026-05-05 06:21 22.12686 114.78495 12127 ft 367 kts 247°
2026-05-05 06:21 22.11652 114.75981 11539 ft 365 kts 247°
2026-05-05 06:21 22.10637 114.73514 11060 ft 359 kts 247°
2026-05-05 06:22 22.09648 114.71114 10966 ft 343 kts 247°
2026-05-05 06:22 22.08703 114.68824 10955 ft 325 kts 247°
2026-05-05 06:22 22.07805 114.66647 10954 ft 309 kts 247°
2026-05-05 06:22 22.06960 114.64600 10933 ft 294 kts 247°
2026-05-05 06:23 22.06153 114.62643 10767 ft 277 kts 247°
2026-05-05 06:23 22.05390 114.60794 10506 ft 267 kts 247°
2026-05-05 06:23 22.04644 114.58987 10206 ft 260 kts 247°
2026-05-05 06:23 22.03910 114.57207 9835 ft 257 kts 246°
2026-05-05 06:24 22.03186 114.55454 9434 ft 257 kts 246°
2026-05-05 06:24 22.02473 114.53727 9078 ft 254 kts 246°
2026-05-05 06:24 22.01776 114.51987 8838 ft 252 kts 248°
2026-05-05 06:24 22.01106 114.50210 8748 ft 260 kts 248°
2026-05-05 06:25 22.00415 114.48389 8647 ft 260 kts 248°
2026-05-05 06:25 21.99803 114.46555 8551 ft 258 kts 260°
2026-05-05 06:25 21.99844 114.44627 8535 ft 262 kts 277°
2026-05-05 06:25 22.00148 114.42690 8530 ft 262 kts 278°
2026-05-05 06:26 22.00466 114.40745 8530 ft 263 kts 278°
2026-05-05 06:26 22.00782 114.38825 8521 ft 262 kts 278°
2026-05-05 06:26 22.01103 114.36869 8519 ft 262 kts 278°
2026-05-05 06:26 22.01419 114.34940 8516 ft 263 kts 278°
2026-05-05 06:27 22.01734 114.33017 8517 ft 263 kts 278°
2026-05-05 06:27 22.02369 114.29131 8519 ft 263 kts 278°
2026-05-05 06:27 22.02689 114.27175 8521 ft 263 kts 278°
2026-05-05 06:28 22.03007 114.25228 8521 ft 262 kts 278°
2026-05-05 06:28 22.03322 114.23293 8522 ft 263 kts 278°
2026-05-05 06:28 22.03636 114.21372 8524 ft 262 kts 278°
2026-05-05 06:28 22.03953 114.19424 8522 ft 263 kts 277°
2026-05-05 06:29 22.04268 114.17484 8523 ft 262 kts 278°
2026-05-05 06:29 22.04583 114.15553 8522 ft 263 kts 278°
2026-05-05 06:29 22.04901 114.13596 8404 ft 264 kts 278°
2026-05-05 06:29 22.05217 114.11646 8130 ft 265 kts 278°
2026-05-05 06:30 22.05531 114.09712 7799 ft 264 kts 278°
2026-05-05 06:30 22.05848 114.07755 7459 ft 264 kts 278°
2026-05-05 06:30 22.06165 114.05798 7123 ft 264 kts 278°
2026-05-05 06:30 22.06477 114.03870 6794 ft 264 kts 278°
2026-05-05 06:31 22.06793 114.01916 6458 ft 264 kts 278°
2026-05-05 06:31 22.07107 113.99976 6125 ft 264 kts 278°
2026-05-05 06:31 22.07423 113.98017 5798 ft 264 kts 278°
2026-05-05 06:31 22.07735 113.96085 5475 ft 264 kts 278°
2026-05-05 06:32 22.08048 113.94144 5152 ft 264 kts 278°
2026-05-05 06:32 22.08362 113.92196 4828 ft 264 kts 278°
2026-05-05 06:32 22.08677 113.90241 4502 ft 264 kts 278°
2026-05-05 06:32 22.08993 113.88276 4181 ft 264 kts 278°
2026-05-05 06:33 22.09304 113.86340 3865 ft 265 kts 278°
2026-05-05 06:33 22.09620 113.84374 3544 ft 265 kts 278°
2026-05-05 06:33 22.09932 113.82432 3228 ft 265 kts 278°
2026-05-05 06:33 22.10244 113.80489 3097 ft 257 kts 278°
2026-05-05 06:34 22.10697 113.78688 3008 ft 247 kts 298°
2026-05-05 06:34 22.11812 113.77322 2912 ft 237 kts 324°
2026-05-05 06:34 22.13196 113.76400 2805 ft 231 kts 333°
2026-05-05 06:34 22.14614 113.75634 2689 ft 227 kts 336°
2026-05-05 06:35 22.16060 113.74903 2572 ft 227 kts 337°
2026-05-05 06:35 22.17495 113.74187 2453 ft 226 kts 338°
2026-05-05 06:35 22.18910 113.73482 2334 ft 223 kts 337°
2026-05-05 06:35 22.20322 113.72776 2233 ft 215 kts 338°
2026-05-05 06:36 22.21631 113.72121 2115 ft 203 kts 338°
2026-05-05 06:36 22.22942 113.71768 2004 ft 189 kts
2026-05-05 06:36 22.24173 113.72151 1898 ft 180 kts 33°
2026-05-05 06:36 22.25189 113.72929 1799 ft 178 kts 41°
2026-05-05 06:37 22.26133 113.73789 1698 ft 177 kts 43°
2026-05-05 06:37 22.27060 113.74651 1595 ft 170 kts 44°
2026-05-05 06:37 22.27912 113.75520 1501 ft 164 kts 58°
2026-05-05 06:37 22.28394 113.76621 1490 ft 165 kts 70°
2026-05-05 06:38 22.28572 113.77132 1488 ft 165 kts 70°
2026-05-05 06:38 22.28918 113.78263 1486 ft 154 kts 73°
2026-05-05 06:38 22.29256 113.79333 1480 ft 145 kts 71°
2026-05-05 06:38 22.29590 113.80340 1489 ft 140 kts 72°
2026-05-05 06:39 22.29913 113.81335 1323 ft 138 kts 72°
2026-05-05 06:39 22.30236 113.82328 1143 ft 138 kts 71°
2026-05-05 06:39 22.30556 113.83312 967 ft 139 kts 71°
2026-05-05 06:39 22.30876 113.84296 786 ft 139 kts 71°
2026-05-05 06:40 22.31117 113.85036 648 ft 139 kts 71°
2026-05-05 06:40 22.31437 113.86033 462 ft 140 kts 70°
2026-05-05 06:40 22.31761 113.87024 292 ft 139 kts 70°
2026-05-05 06:40 22.32084 113.88011 93 ft 139 kts 70°
2026-05-05 06:41 22.32393 113.88989 16 ft 124 kts 69°
2026-05-05 06:41 22.32634 113.89714 15 ft 86 kts 71°
2026-05-05 06:41 22.32805 113.90237 15 ft 62 kts 71°
2026-05-05 06:41 22.32919 113.90596 15 ft 38 kts 73°
2026-05-05 06:42 22.32938 113.90780 15 ft 17 kts 96°
2026-05-05 06:42 22.32924 113.90876 15 ft 10 kts 101°
2026-05-05 06:42 22.32906 113.90972 15 ft 13 kts 102°
2026-05-05 06:42 22.32903 113.91090 15 ft 18 kts 76°
2026-05-05 06:43 22.32953 113.91239 15 ft 23 kts 69°
2026-05-05 06:43 22.33011 113.91412 15 ft 25 kts 72°
2026-05-05 06:43 22.33069 113.91604 15 ft 27 kts 72°
2026-05-05 06:43 22.33127 113.91795 15 ft 26 kts 71°
2026-05-05 06:44 22.33187 113.91983 15 ft 27 kts 71°
2026-05-05 06:44 22.33152 113.92136 15 ft 24 kts 155°
2026-05-05 06:44 22.32983 113.92201 16 ft 26 kts 160°
2026-05-05 06:44 22.32800 113.92275 17 ft 29 kts 160°
2026-05-05 06:45 22.32613 113.92342 18 ft 27 kts 162°
2026-05-05 06:45 22.32456 113.92398 21 ft 18 kts 161°
2026-05-05 06:45 22.32361 113.92434 23 ft 11 kts 160°
2026-05-05 06:45 22.32293 113.92460 25 ft 10 kts 160°
2026-05-05 06:46 22.32246 113.92518 26 ft 11 kts 90°
2026-05-05 06:46 22.32268 113.92600 27 ft 10 kts 69°
2026-05-05 06:46 22.32260 113.92657 27 ft 7 kts 141°
2026-05-05 06:46 22.32211 113.92681 28 ft 7 kts 160°
2026-05-05 06:47 22.32175 113.92695 29 ft 0 kts 160°
2026-05-05 06:48 22.32173 113.92696 29 ft 1 kts 160°
2026-05-05 06:49 22.32150 113.92704 30 ft 5 kts 161°
2026-05-05 06:49 22.32097 113.92724 32 ft 10 kts 161°
2026-05-05 06:49 22.32012 113.92754 34 ft 15 kts 161°
2026-05-05 06:49 22.31900 113.92790 37 ft 16 kts 185°
2026-05-05 06:50 22.31835 113.92672 36 ft 22 kts 251°
2026-05-05 06:50 22.31787 113.92523 35 ft 12 kts 251°
2026-05-05 06:50 22.31759 113.92442 36 ft 10 kts 237°
2026-05-05 06:50 22.31691 113.92432 37 ft 11 kts 164°
2026-05-05 06:51 22.31623 113.92474 39 ft 10 kts 121°
2026-05-05 06:51 22.31589 113.92507 39 ft 5 kts 174°
2026-05-05 06:51 22.31561 113.92507 40 ft 3 kts 188°
2026-05-05 06:51 22.31545 113.92500 40 ft 2 kts 205°
2026-05-05 06:52 22.31530 113.92493 40 ft 2 kts 205°
2026-05-05 06:52 22.31515 113.92485 40 ft 0 kts 205°
2026-05-05 06:52 22.31511 113.92483 40 ft 0 kts 206°
2026-05-05 06:52 22.31508 113.92481 40 ft 0 kts 206°